Tracking 31027 objects as of 19-Jul-2025
HD Live streaming from Space Station
objects crossing your sky now

PSLV DEB

Track PSLV DEB now!
10-day predictions


NORAD ID: 27255
Int'l Code: 2001-049HB
Perigee: 374.1 km
Apogee: 381.3 km
Inclination: 97.9 °
Period: 92.0 minutes
Semi major axis: 6748 km
RCS: 0.0078 m2 (small)
Launch date: October 22, 2001
Source: India (IND)
Launch site: SRIHARIKOTA (SRI)

Note: This is SATELLITE DEBRIS
Your satellite tracking list
SL-12 R/B(2)
Track 1 satellite(s)




NASA's NSSDC Master Catalog

Two Line Element Set (TLE):
1 27255U 01049HB  25199.62746095  .00163218  00000-0  15759-2 0  9990
2 27255  97.8788 258.2525 0005314   2.3781 357.7502 15.65930376277193
Source of the keplerian elements: AFSPC